Location: Votelez
(50.0000°N, 15.0000°E)
Time: 21:35:09
(UTC+01:00)

ARIANE 6 FM1 Upper Stage - Pass Details

Date: 21 February 2026
Orbit: 523 x 607 km, 62.0° (Epoch: 13 March)

Event Time Altitude Azimuth Distance (km) Brightness Sun altitude
Rises 18:37:53 0° 305° (NW) 2,659 7.0 -11.8°
Reaches altitude 10° 18:40:26 10° 289° (WNW) 1,767 6.4 -12.2°
Maximum altitude 18:43:28 21° 239° (WSW) 1,210 5.2 -12.7°
Drops below altitude 10° 18:46:30 10° 189° (S) 1,771 5.3 -13.2°
Sets 18:49:04 0° 174° (S) 2,667 6.1 -13.6°
